CW0350 Weather Reports


time (UTC)temp
C
wind
direction
speed
KPH
gust
KPH
rain 1hr
cm
rain 24hr
cm
rain mn
cm
humidity
%
barometer
mb
20260505100859 15 331 0.0 0.0 0.00 0.00 0.00 72 1015.3
20260505100355 15 320 0.0 0.0 0.00 0.00 0.00 72 1015.3
20260505095851 15 330 0.0 0.0 0.00 0.00 0.00 72 1015.1
20260505095349 15 299 0.0 0.0 0.00 0.00 0.00 71 1015.1
20260505094845 15 295 0.0 0.0 0.00 0.00 0.00 72 1015.1
20260505094342 15 327 0.0 0.0 0.00 0.00 0.00 71 1015.1
20260505093837 16 324 0.0 0.0 0.00 0.00 0.00 71 1015.1
20260505093335 16 313 0.0 0.0 0.00 0.00 0.00 71 1014.9
20260505092832 16 339 0.0 0.0 0.00 0.00 0.00 70 1015.2
20260505092330 16 321 0.0 0.0 0.00 0.00 0.00 71 1015.1
20260505091827 16 328 0.0 0.0 0.00 0.00 0.00 70 1015.1
20260505091325 16 330 0.0 0.0 0.00 0.00 0.00 70 1015.2
20260505090823 16 300 0.0 0.0 0.00 0.00 0.00 69 1015.1
20260505090321 16 289 0.0 0.0 0.00 0.00 0.00 69 1015.0
20260505085818 16 304 0.0 0.0 0.00 0.00 0.00 69 1015.1
20260505085316 16 133 1.6 3.2 0.00 0.00 0.00 68 1014.9
20260505084813 16 188 0.0 1.6 0.00 0.00 0.00 68 1015.0
20260505084312 16 93 0.0 0.0 0.00 0.00 0.00 68 1014.9
20260505083808 16 246 0.0 0.0 0.00 0.00 0.00 68 1015.0
20260505083306 16 218 3.2 3.2 0.00 0.00 0.00 68 1014.9
20260505082802 16 215 1.6 1.6 0.00 0.00 0.00 68 1014.9
20260505082259 16 291 0.0 1.6 0.00 0.00 0.00 67 1014.9
20260505081755 16 294 0.0 1.6 0.00 0.00 0.00 67 1015.1
20260505081252 16 312 0.0 1.6 0.00 0.00 0.00 67 1015.1
20260505080749 16 304 0.0 0.0 0.00 0.00 0.00 68 1015.0
20260505080244 16 354 0.0 1.6 0.00 0.00 0.00 67 1014.8
20260505075740 16 304 0.0 0.0 0.00 0.00 0.00 67 1014.7
20260505075238 16 200 0.0 1.6 0.00 0.00 0.00 67 1014.9
20260505074735 16 280 1.6 3.2 0.00 0.00 0.00 67 1014.9
20260505074232 17 204 1.6 1.6 0.00 0.00 0.00 67 1014.7
20260505073729 17 271 0.0 0.0 0.00 0.00 0.00 66 1014.9
20260505073227 17 288 0.0 0.0 0.00 0.00 0.00 66 1014.9
20260505072723 17 343 0.0 0.0 0.00 0.00 0.00 66 1014.7
20260505072219 17 171 1.6 3.2 0.00 0.00 0.00 66 1014.8
20260505071715 17 289 1.6 1.6 0.00 0.00 0.00 66 1014.6
20260505071212 17 333 0.0 0.0 0.00 0.00 0.00 66 1014.5
20260505070710 17 200 1.6 3.2 0.00 0.00 0.00 67 1014.7
20260505070206 17 232 4.8 6.4 0.00 0.00 0.00 68 1014.4
20260505065702 17 274 1.6 1.6 0.00 0.00 0.00 67 1014.6
20260505065159 17 278 1.6 3.2 0.00 0.00 0.00 66 1014.6
20260505064656 17 249 0.0 1.6 0.00 0.00 0.00 66 1014.5
20260505064154 17 270 3.2 3.2 0.00 0.00 0.00 67 1014.6
20260505063651 17 311 0.0 0.0 0.00 0.00 0.00 66 1014.6
20260505063147 17 287 0.0 0.0 0.00 0.00 0.00 66 1014.5
20260505062643 17 174 1.6 1.6 0.00 0.00 0.00 66 1014.6
20260505062141 17 300 1.6 1.6 0.00 0.00 0.00 66 1014.6
20260505061638 17 291 1.6 3.2 0.00 0.00 0.00 65 1014.7
20260505061136 17 204 0.0 1.6 0.00 0.00 0.00 66 1014.6
20260505060633 17 260 3.2 3.2 0.00 0.00 0.00 65 1014.5
20260505060130 17 226 0.0 0.0 0.00 0.00 0.00 66 1014.6
20260505055625 17 281 0.0 1.6 0.00 0.00 0.00 65 1014.6
20260505055122 17 290 0.0 0.0 0.00 0.00 0.00 65 1014.6
20260505054619 18 304 0.0 0.0 0.00 0.00 0.00 65 1014.8
20260505054117 18 280 1.6 1.6 0.00 0.00 0.00 65 1014.5
20260505053614 18 287 1.6 3.2 0.00 0.00 0.00 64 1014.8
20260505053111 18 220 3.2 3.2 0.00 0.00 0.00 64 1014.5
20260505052608 18 232 3.2 3.2 0.00 0.00 0.00 64 1014.7
20260505052105 18 121 3.2 3.2 0.00 0.00 0.00 64 1014.7
20260505051602 18 148 3.2 4.8 0.00 0.00 0.00 64 1014.8
20260505051100 18 195 1.6 4.8 0.00 0.00 0.00 65 1014.5
20260505050558 18 247 3.2 3.2 0.00 0.00 0.00 65 1014.5
20260505041525 18 237 4.8 4.8 0.00 0.00 0.00 63 1014.6
20260505041023 18 216 1.6 1.6 0.00 0.00 0.00 63 1014.5
20260505040520 18 299 3.2 4.8 0.00 0.00 0.00 63 1014.5
20260505040017 19 204 3.2 3.2 0.00 0.00 0.00 63 1014.6
20260505035513 19 235 6.4 6.4 0.00 0.00 0.00 63 1014.6
20260505035010 19 193 3.2 4.8 0.00 0.00 0.00 65 1014.6
20260505034506 19 240 4.8 6.4 0.00 0.00 0.00 62 1014.5
20260505034004 19 115 3.2 4.8 0.00 0.00 0.00 64 1014.6
20260505033500 19 250 9.7 11.3 0.00 0.00 0.00 63 1014.5
20260505032959 19 193 6.4 6.4 0.00 0.00 0.00 64 1014.7
20260505032456 19 150 3.2 4.8 0.00 0.00 0.00 64 1014.5
20260505031952 19 165 4.8 4.8 0.00 0.00 0.00 64 1014.5
20260505031449 19 231 4.8 6.4 0.00 0.00 0.00 64 1014.5
20260505030946 19 281 1.6 3.2 0.00 0.00 0.00 64 1014.5
20260505030442 19 203 3.2 4.8 0.00 0.00 0.00 65 1014.4
20260505025937 19 202 3.2 3.2 0.00 0.00 0.00 65 1014.4
20260505025435 20 71 4.8 4.8 0.00 0.00 0.00 67 1014.3
20260505024934 20 182 4.8 4.8 0.00 0.00 0.00 67 1014.5
20260505024431 20 183 4.8 4.8 0.00 0.00 0.00 67 1014.3
20260505023927 20 184 4.8 4.8 0.00 0.00 0.00 66 1014.2
20260505023425 20 182 3.2 4.8 0.00 0.00 0.00 66 1014.2
20260505022922 20 173 4.8 4.8 0.00 0.00 0.00 66 1014.1
20260505022420 20 171 3.2 4.8 0.00 0.00 0.00 65 1014.0
20260505021916 20 189 4.8 6.4 0.00 0.00 0.00 65 1014.0
20260505021413 20 221 6.4 11.3 0.00 0.00 0.00 63 1013.9
20260505020908 20 199 4.8 4.8 0.00 0.00 0.00 61 1013.9
20260505020404 20 193 3.2 4.8 0.00 0.00 0.00 60 1013.9
20260505015901 20 180 4.8 6.4 0.00 0.00 0.00 58 1013.8
20260505015358 20 163 3.2 3.2 0.00 0.00 0.00 60 1013.9
20260505014856 20 189 1.6 3.2 0.00 0.00 0.00 59 1013.7
20260505014352 20 194 6.4 6.4 0.00 0.00 0.00 61 1013.6
20260505013849 20 185 3.2 3.2 0.00 0.00 0.00 65 1013.7
20260505013346 20 217 1.6 1.6 0.00 0.00 0.00 61 1013.8
20260505012845 20 255 0.0 1.6 0.00 0.00 0.00 53 1013.6
20260505012342 20 280 1.6 1.6 0.00 0.00 0.00 51 1013.8
20260505011838 20 224 1.6 1.6 0.00 0.00 0.00 54 1013.7
20260505011335 20 241 1.6 1.6 0.00 0.00 0.00 57 1013.5
20260505010831 20 208 1.6 3.2 0.00 0.00 0.00 53 1013.5
20260505010327 21 273 0.0 1.6 0.00 0.00 0.00 45 1013.5
20260505005823 21 271 0.0 1.6 0.00 0.00 0.00 45 1013.5
20260505005320 21 239 1.6 1.6 0.00 0.00 0.00 44 1013.6
20260505004818 21 278 1.6 1.6 0.00 0.00 0.00 44 1013.4
20260505004314 21 288 0.0 0.0 0.00 0.00 0.00 44 1013.3
20260505003811 21 279 0.0 1.6 0.00 0.00 0.00 44 1013.3
20260505003309 21 272 1.6 1.6 0.00 0.00 0.00 43 1013.2
20260505002804 21 289 0.0 1.6 0.00 0.00 0.00 44 1013.0
20260505002303 21 273 1.6 1.6 0.00 0.00 0.00 43 1012.9
20260505001800 21 231 0.0 1.6 0.00 0.00 0.00 44 1012.9
20260505001257 21 254 0.0 1.6 0.00 0.00 0.00 43 1012.9
20260505000754 21 267 0.0 1.6 0.00 0.00 0.00 43 1012.8
20260505000252 21 296 0.0 0.0 0.00 0.00 0.00 44 1013.0
20260504235748 22 297 0.0 0.0 0.00 0.00 0.00 43 1013.1
20260504235244 22 308 0.0 0.0 0.00 0.00 0.00 43 1012.8
20260504234742 22 231 1.6 3.2 0.00 0.00 0.00 42 1012.8
20260504234239 22 292 0.0 0.0 0.00 0.00 0.00 42 1012.7
20260504233735 22 289 0.0 0.0 0.00 0.00 0.00 42 1012.7
20260504233231 22 293 0.0 0.0 0.00 0.00 0.00 41 1012.6
20260504232728 22 261 1.6 3.2 0.00 0.00 0.00 40 1012.5
20260504232225 23 283 0.0 0.0 0.00 0.00 0.00 40 1012.4
20260504231722 23 298 0.0 0.0 0.00 0.00 0.00 41 1012.3
20260504231219 23 217 3.2 4.8 0.00 0.00 0.00 39 1012.5
20260504230715 23 288 0.0 1.6 0.00 0.00 0.00 39 1012.5
20260504230214 23 242 3.2 3.2 0.00 0.00 0.00 38 1012.4
20260504225712 23 157 4.8 4.8 0.00 0.00 0.00 38 1012.4
20260504225207 23 237 1.6 1.6 0.00 0.00 0.00 38 1012.5
20260504224705 23 281 1.6 1.6 0.00 0.00 0.00 38 1012.3
20260504224201 23 254 1.6 1.6 0.00 0.00 0.00 39 1012.3
20260504223658 23 295 0.0 1.6 0.00 0.00 0.00 39 1012.5
20260504223154 23 208 1.6 3.2 0.00 0.00 0.00 38 1012.5
20260504222651 23 273 1.6 1.6 0.00 0.00 0.00 38 1012.5
20260504222147 23 180 1.6 1.6 0.00 0.00 0.00 38 1012.3
20260504221645 23 298 0.0 0.0 0.00 0.00 0.00 38 1012.5
20260504221142 24 289 1.6 3.2 0.00 0.00 0.00 37 1012.6
20260504220638 24 184 3.2 4.8 0.00 0.00 0.00 37 1012.8
20260504220136 24 271 3.2 3.2 0.00 0.00 0.00 38 1012.5
20260504215632 24 190 4.8 4.8 0.00 0.00 0.00 36 1012.5
20260504215130 24 291 0.0 1.6 0.00 0.00 0.00 38 1012.7
20260504214626 24 189 3.2 3.2 0.00 0.00 0.00 37 1012.6
20260504214122 24 200 3.2 4.8 0.00 0.00 0.00 37 1012.6
20260504213619 24 314 0.0 0.0 0.00 0.00 0.00 37 1012.6
20260504213116 24 192 3.2 4.8 0.00 0.00 0.00 38 1012.5
20260504212612 24 34 1.6 1.6 0.00 0.00 0.00 39 1012.6
20260504212109 25 219 4.8 4.8 0.00 0.00 0.00 39 1012.6
20260504211606 24 306 1.6 1.6 0.00 0.00 0.00 38 1012.5
20260504211102 24 271 6.4 6.4 0.00 0.00 0.00 36 1012.7
20260504210600 24 229 3.2 3.2 0.00 0.00 0.00 40 1012.7
20260504210056 23 233 3.2 3.2 0.00 0.00 0.00 37 1012.7
20260504205554 23 204 3.2 3.2 0.00 0.00 0.00 44 1012.5
20260504205052 24 161 6.4 9.7 0.00 0.00 0.00 40 1012.7
20260504204549 24 184 4.8 6.4 0.00 0.00 0.00 37 1012.8
20260504204049 24 171 3.2 4.8 0.00 0.00 0.00 40 1012.7
20260504203546 24 197 4.8 9.7 0.00 0.00 0.00 37 1012.8
20260504203043 24 265 3.2 3.2 0.00 0.00 0.00 36 1012.7
20260504202539 23 169 4.8 6.4 0.00 0.00 0.00 38 1012.9
20260504202036 23 238 3.2 4.8 0.00 0.00 0.00 39 1012.9
20260504201533 23 204 3.2 4.8 0.00 0.00 0.00 41 1012.9
20260504201031 23 212 4.8 4.8 0.00 0.00 0.00 41 1013.2
20260504200527 23 219 3.2 3.2 0.00 0.00 0.00 42 1013.0
20260504200024 23 183 4.8 6.4 0.00 0.00 0.00 41 1013.0
20260504195520 25 238 6.4 6.4 0.00 0.00 0.00 36 1013.2
20260504195017 24 235 3.2 3.2 0.00 0.00 0.00 35 1013.4
20260504194513 25 274 3.2 4.8 0.00 0.00 0.00 34 1013.5
20260504194008 25 142 1.6 3.2 0.00 0.00 0.00 33 1013.4
20260504193506 25 214 4.8 4.8 0.00 0.00 0.00 32 1013.6
20260504193005 25 196 6.4 9.7 0.00 0.00 0.00 30 1013.6
20260504192502 25 230 3.2 4.8 0.00 0.00 0.00 35 1013.8
20260504192000 24 239 1.6 3.2 0.00 0.00 0.00 37 1013.6
20260504191458 23 192 6.4 9.7 0.00 0.00 0.00 37 1013.6
20260504190953 24 169 3.2 4.8 0.00 0.00 0.00 37 1013.6
20260504190449 23 299 1.6 3.2 0.00 0.00 0.00 37 1013.9
20260504185946 23 163 3.2 4.8 0.00 0.00 0.00 43 1013.9
20260504185443 23 139 3.2 3.2 0.00 0.00 0.00 39 1014.0
20260504184939 23 173 3.2 6.4 0.00 0.00 0.00 44 1014.0
20260504184435 23 233 1.6 1.6 0.00 0.00 0.00 39 1014.2
20260504183931 23 179 4.8 4.8 0.00 0.00 0.00 37 1014.2
20260504183428 24 257 3.2 4.8 0.00 0.00 0.00 36 1014.3
20260504182926 24 195 4.8 6.4 0.00 0.00 0.00 40 1014.4
20260504182423 23 353 0.0 0.0 0.00 0.00 0.00 36 1014.5
20260504181920 23 318 1.6 1.6 0.00 0.00 0.00 37 1014.4
20260504181417 23 174 1.6 3.2 0.00 0.00 0.00 38 1014.6
20260504180916 25 1 3.2 4.8 0.00 0.00 0.00 35 1014.6
20260504180414 25 231 1.6 3.2 0.00 0.00 0.00 35 1014.7
20260504175912 24 69 1.6 1.6 0.00 0.00 0.00 33 1014.6
20260504175409 24 177 4.8 4.8 0.00 0.00 0.00 34 1014.8
20260504174906 24 161 4.8 6.4 0.00 0.00 0.00 35 1014.7
20260504174404 23 194 1.6 3.2 0.00 0.00 0.00 34 1014.7
20260504173901 25 180 6.4 6.4 0.00 0.00 0.00 32 1014.8
20260504173357 24 180 1.6 4.8 0.00 0.00 0.00 35 1014.8
20260504172855 23 215 1.6 1.6 0.00 0.00 0.00 34 1014.8
20260504172351 24 210 4.8 4.8 0.00 0.00 0.00 33 1014.9
20260504171847 24 173 4.8 4.8 0.00 0.00 0.00 35 1015.1
20260504171344 23 314 0.0 1.6 0.00 0.00 0.00 36 1015.1
20260504170842 23 186 4.8 6.4 0.00 0.00 0.00 37 1015.2
20260504170338 23 221 4.8 4.8 0.00 0.00 0.00 35 1015.1
20260504160256 22 156 3.2 3.2 0.00 0.00 0.00 38 1015.9
20260504150722 21 178 3.2 4.8 0.00 0.00 0.00 45 1016.2
20260504150218 21 329 0.0 1.6 0.00 0.00 0.00 44 1016.1
20260504141148 20 318 1.6 1.6 0.00 0.00 0.00 51 1016.4
20260504140645 20 227 1.6 3.2 0.00 0.00 0.00 51 1016.3
20260504140140 18 298 1.6 1.6 0.00 0.00 0.00 54 1016.4
20260504130609 16 289 3.2 4.8 0.00 0.00 0.00 59 1017.1
20260504130105 16 338 1.6 1.6 0.00 0.00 0.00 61 1017.0
20260504110456 12 269 1.6 1.6 0.00 0.00 0.00 67 1017.1